sat.trackr.live / text

‹ back to catalog

UNKNOWN

NORAD 89005

UNKNOWN UNKNOWN UNKNOWN

§ Identity

Operator
Country
Launch date
Launch site
Launch vehicle
Mass (kg)
RCS (m²)

External: N2YO · Heavens-Above

§ Orbital elements

Epoch: 2026-09-17T17:28:35.304960Z

Period
99.51 min
Inclination
97.8502°
Eccentricity
0.0186635
Mean motion
14.47048939 rev/d
Perigee alt
602.5 km
Apogee alt
868.1 km
Semi-major
7,113.4 km
B*
4.0085e-4
RAAN
74.4007°
Arg perigee
251.5794°
Mean anomaly
106.5031°
Rev number
57,442

§ Raw data

UNKNOWN1 89005U          26260.72818640  .00001765  00000+0  40085-3 0  99922 89005  97.8502  74.4007 0186635 251.5794 106.5031 14.47048939574426

JSON: /api/v1/satellites/89005 · /tle

For live sub-satellite position, see the globe view (requires WebGL).

§ Visibility from observer

Set your observer location to see the next 7 days of passes ≥ 10°. The values pass through the URL so the page stays shareable.

No JS? Fill the form by hand. The geolocation button needs JavaScript.